Regional Weather Roundup
Issued by NWS

Home | Current Version | Previous Version | Text Only | Print | Product List | Glossary Off
Versions: 1 2 3 4 5 6 7 8 9 10 11 12 13 14 15 16 17 18 19 20 21 22 23 24 25 26 27 28 29 30 31 32 33 34 35 36 37 38 39 40 41 42 43 44 45 46 47 48 49 50

000
ASUS45 KBOU 202210
RWRCO

WEATHER ROUNDUP FOR COLORADO
NATIONAL WEATHER SERVICE DENVER/BOULDER CO
300 PM MST MON NOV 20 2017

NOTE: "FAIR" INDICATES FEW OR NO CLOUDS BELOW 12000 FEET WITH NO
SIGNIFICANT WEATHER AND/OR OBSTRUCTIONS TO VISIBILITY.

COZ001>005-013-030-031-202300-
...NORTHWEST COLORADO...

CITY           SKY/WX    TMP DP  RH WIND       PRES   REMARKS
CRAIG          FAIR      41  25  53 CALM      30.07F
HAYDEN         FAIR      37  24  59 CALM      30.09S
MEEKER         FAIR      47  18  31 CALM      30.07F
RABBIT EARS PA FAIR      30   7  37 W12G23    30.12S WCI  21
STEAMBOAT SPGS FAIR      37  22  55 CALM      30.07F
WALDEN         FAIR      41   9  26 S14G22    30.05S
$$

COZ006>008-011-202300-
...WEST CENTRAL VALLEYS...

CITY           SKY/WX    TMP DP  RH WIND       PRES   REMARKS
GRAND JUNCTION FAIR      44  18  35 W3        30.14S
MONTROSE       FAIR      40  18  41 CALM      30.16F
EAGLE          FAIR      40  19  43 CALM      30.12S
RIFLE          FAIR      39  17  41 CALM      30.15S
DELTA          PTSUNNY   44  17  33 E3        30.16S
NUCLA          PTSUNNY   45   3  18 CALM      30.17F
$$

COZ017>023-064>068-202300-
...SOUTHWEST COLORADO...

CITY           SKY/WX    TMP DP  RH WIND       PRES   REMARKS
DURANGO        FAIR      49  11  21 SW5       30.11F
CORTEZ         CLOUDY    49   9  19 W3        30.15S
PAGOSA SPRINGS FAIR      48   7  19 SW7       30.14S
TELLURIDE      CLOUDY    45 -11   9 SW5       30.20F
WOLF CREEK PAS FAIR      32   9  37 S9        30.28F WCI  24
$$

COZ009-010-012-014-032>034-037-058>063-202300-
...CENTRAL COLORADO...

CITY           SKY/WX    TMP DP  RH WIND       PRES   REMARKS
ASPEN          FAIR      41  17  38 N6        30.11S
BUENA VISTA    FAIR      51   8  17 NW17G30   30.02R
COPPER MTN     FAIR      34   9  35 MISG      30.20S
BERTHOUD PASS  FAIR      23  12  63 NW33G39   30.14F WCI   5
COTTONWOOD PAS FAIR      46   7  19 W43G60    30.03F
GUNNISON       FAIR      33  15  47 CALM      30.17F
KREMMLING      FAIR      54   1  12 W15       30.08F
LEADVILLE      FAIR      38   0  20 N7        30.13F
MONARCH PASS   FAIR      28   7  40 W47       30.27S WCI  10
SALIDA         FAIR      56  10  16 W28G38    30.06R
SUNLIGHT       FAIR      32   0  25 SW14G29   30.22S WCI  22
WILKERSON PASS FAIR      34   5  29 W17G31    30.08R WCI  23
$$

COZ069>075-202300-
...SAN LUIS VALLEY/SANGRE DE CRISTO MOUNTAINS...

CITY           SKY/WX    TMP DP  RH WIND       PRES   REMARKS
ALAMOSA        FAIR      50  -1  12 S3        30.06S
DEL NORTE      FAIR      47   9  20 E7        30.08S
LA VETA PASS   FAIR      43   3  19 S24G35      N/A
SAGUACHE       FAIR      50  -9   8 NW18G28   30.08R
$$

COZ035-036-038>040-202300-
...NORTHERN COLORADO FRONT RANGE...

CITY           SKY/WX    TMP DP  RH WIND       PRES   REMARKS
DENVER INTL AP FAIR      67  11  11 NE15      29.79R
DMNS CITY PARK   N/A     66   8  10 N14       29.79R
AURORA         MOSUNNY   66   8  10 N9        29.81R
FRONT RANGE AP MOSUNNY   68  10  10 N9        29.80R
ERIE MUNI ARPT FAIR      69   4   8 CALM      29.82R
BOULDER MUN AP FAIR      64  14  14 N8        29.77R
CENTENNIAL     FAIR      65  16  15 NW14      29.81R
BROOMFIELD     MOSUNNY   64   9  11 W26G52    29.80R
FORT COLLINS   FAIR      65  12  12 SW18G24   29.75F
LONGMONT       FAIR      69  11  10 W10G17    29.80R
$$

COZ041-046-047-076>085-087-088-202300-
...PIKES PEAK/PALMER DIVIDE AND SOUTHERN FOOTHILLS...

CITY           SKY/WX    TMP DP  RH WIND       PRES   REMARKS
COLO. SPRINGS  FAIR      65  12  12 W31G43    29.81F
A. F. ACADEMY  SUNNY     63   9  12 W18G31    29.83F
SCHRIEVER AFB  FAIR      64  10  12 NW24      29.83S
CHEYENNE MTN   FAIR      58   7  13 SW6       29.81S
ELLICOTT         N/A    N/A N/A N/A NW12      29.81F
FALCON         FAIR      62   9  12 NW21G30   29.87R
FORT CARSON    FAIR      67   4   8 S3        29.79F
LIMON          FAIR      67   5   8 N12       29.80S
MONUMENT HILL  FAIR      59  12  15 NW10      29.87S
CANON CITY     FAIR      70  14  11 NW25G33   29.80F
WALSENBURG     FAIR      64   7  10 W23G35    29.87F
TRINIDAD       FAIR      64  10  12 W18G32    29.85F
$$

COZ042>045-048>051-090-091-202300-
...NORTHEAST COLORADO...

CITY           SKY/WX    TMP DP  RH WIND       PRES   REMARKS
GREELEY ARPT   FAIR      66  13  12 SE9       29.76R
AKRON          FAIR      65   4   9 NW13      29.79R
BURLINGTON     FAIR      71  -2   5 NW12      29.77R
WRAY           NOT AVBL
YUMA           FAIR      63   9  12 W9        29.76S
STERLING       FAIR      66  12  12 NW16      29.75R
HOLYOKE        PTSUNNY   68  14  12 NW24G33   29.73R
FORT MORGAN    FAIR      68   6   8 NW23G31   29.79R
$$

COZ086-089-092>099-202300-
...SOUTHEAST COLORADO...

CITY           SKY/WX    TMP DP  RH WIND       PRES   REMARKS
PUEBLO         FAIR      68   9  10 SW10      29.74F
LA JUNTA       FAIR      71   5   7 W10       29.76F
LAMAR          FAIR      70   3   7 W16       29.74F
SPRINGFIELD      N/A     66   5   9 W10       29.80R
$$



USA.gov is the U.S. government's official web portal to all federal, state and local government web resources and services.